Weather History for KTBR - October, 2012

Change the Weather History Date:

Monday, October 15, 2012

  Actual Average (KSAV) Record (KSAV)
Temperature  
Mean Temperature 71 °F 68 °F  
Max Temperature 82 °F 79 °F 90 °F (1925)
Min Temperature 60 °F 58 °F 41 °F (1988)
Degree Days  
Heating Degree Days 0 2  
Month to date heating degree days 14  
Since 1 July heating degree days 16  
Cooling Degree Days 6 5  
Month to date cooling degree days 96  
Year to date cooling degree days 2362  
Growing Degree Days 21 (Base 50)    
Moisture  
Dew Point 63 °F    
Average Humidity 80    
Maximum Humidity 100    
Minimum Humidity 56    
Precipitation  
Precipitation 0.00 in 0.12 in 3.03 in (1971)
Month to date precipitation 2.14  
Year to date precipitation 41.09  
Sea Level Pressure  
Sea Level Pressure 29.91 in    
Wind  
Wind Speed 3 mph (WNW)    
Max Wind Speed 13 mph    
Max Gust Speed 18 mph    
Visibility 8 miles    
Events Fog , Thunderstorm    
T = Trace of Precipitation, MM = Missing Value Source: NWS Daily Summary

Daily Weather History Graph

Daily Weather History Graph

Search for Another Location

Airport or City:

Trip Planner

Search our weather history database for the weather conditions in past years. The results will help you decide how hot, cold, wet, or windy it might be!

Date:

Astronomy

Oct. 15, 2012 Rise Set
Actual Time 7:31 AM EDT 6:53 PM EDT
Civil Twilight 7:06 AM EDT 7:18 PM EDT
Nautical Twilight 6:37 AM EDT 7:46 PM EDT
Astronomical Twilight 6:09 AM EDT 8:15 PM EDT
Moon 7:36 AM EDT (10/15) 6:56 PM EDT (10/15)
Length of Visible Light 12h 11m
Length of Day
11h 22m
New Moon, 0% of the Moon is Illuminated
Oct 15
New Moon
Oct 21
First Quarter
Oct 29
Full
Nov 6
Last Quarter
Nov 13
New

Hourly Weather History & Observations

Time (EDT) Temp. Heat Index Dew Point Humidity Pressure Visibility Wind Dir Wind Speed Gust Speed Precip Events Conditions
12:15 AM 64.4 °F - 64.4 °F 100% 30.04 in 0.5 mi Calm Calm - N/A Fog Fog
12:35 AM 64.4 °F - 64.4 °F 100% 30.04 in 0.2 mi Calm Calm - N/A Fog Fog
1:15 AM 62.6 °F - 62.6 °F 100% 30.02 in 0.2 mi Calm Calm - N/A Fog Fog
1:35 AM 62.6 °F - 62.6 °F 100% 30.02 in 0.8 mi Calm Calm - N/A   Mostly Cloudy
1:55 AM 62.6 °F - 62.6 °F 100% 30.02 in 0.5 mi Calm Calm - N/A Fog Fog
2:15 AM 64.4 °F - 64.4 °F 100% 30.01 in 4.0 mi Calm Calm - N/A   Mostly Cloudy
2:35 AM 64.4 °F - 64.4 °F 100% 30.00 in 3.0 mi Calm Calm - N/A   Overcast
2:55 AM 64.4 °F - 64.4 °F 100% 30.00 in 5.0 mi Calm Calm - N/A   Overcast
3:15 AM 64.4 °F - 64.4 °F 100% 29.99 in 7.0 mi Calm Calm - N/A   Mostly Cloudy
3:35 AM 64.4 °F - 64.4 °F 100% 29.98 in 3.0 mi Calm Calm - N/A   Scattered Clouds
3:55 AM 62.6 °F - 62.6 °F 100% 29.97 in 5.0 mi Calm Calm - N/A   Scattered Clouds
4:15 AM 62.6 °F - 62.6 °F 100% 29.97 in 7.0 mi Calm Calm - N/A   Clear
4:35 AM 62.6 °F - 62.6 °F 100% 29.97 in 1.0 mi Calm Calm - N/A   Mist
4:55 AM 62.6 °F - 62.6 °F 100% 29.97 in 0.5 mi Calm Calm - N/A Fog Fog
5:15 AM 62.6 °F - 62.6 °F 100% 29.97 in 7.0 mi Calm Calm - N/A   Clear
5:35 AM 62.6 °F - 62.6 °F 100% 29.96 in 7.0 mi Calm Calm - N/A   Clear
5:55 AM 62.6 °F - 62.6 °F 100% 29.96 in 7.0 mi Calm Calm - N/A   Clear
6:15 AM 62.6 °F - 62.6 °F 100% 29.96 in 10.0 mi Calm Calm - N/A   Clear
6:35 AM 60.8 °F - 60.8 °F 100% 29.96 in 10.0 mi Calm Calm - N/A   Clear
6:55 AM 60.8 °F - 60.8 °F 100% 29.96 in 10.0 mi Calm Calm - N/A   Clear
7:15 AM 60.8 °F - 60.8 °F 100% 29.96 in 10.0 mi Calm Calm - N/A   Clear
7:35 AM 60.8 °F - 60.8 °F 100% 29.97 in 7.0 mi Calm Calm - N/A   Clear
8:15 AM 62.6 °F - 62.6 °F 100% 29.97 in 7.0 mi Calm Calm - N/A   Mostly Cloudy
8:35 AM 62.6 °F - 62.6 °F 100% 29.97 in 10.0 mi Calm Calm - N/A   Mostly Cloudy
8:55 AM 68.0 °F - 68.0 °F 100% 29.98 in 10.0 mi Calm Calm - N/A   Mostly Cloudy
9:35 AM 71.6 °F - 71.6 °F 100% 29.98 in 10.0 mi WSW 4.6 mph - N/A   Scattered Clouds
9:55 AM 73.4 °F - 73.4 °F 100% 29.97 in 10.0 mi SW 9.2 mph - N/A   Scattered Clouds
10:15 AM 73.4 °F - 71.6 °F 94% 29.97 in 10.0 mi SW 9.2 mph - N/A   Scattered Clouds
10:35 AM 77.0 °F - 73.4 °F 89% 29.96 in 10.0 mi WSW 8.1 mph - N/A   Scattered Clouds
10:55 AM 77.0 °F - 73.4 °F 89% 29.95 in 10.0 mi SW 10.4 mph 18.4 mph N/A   Mostly Cloudy
11:15 AM 78.8 °F - 73.4 °F 83% 29.95 in 10.0 mi SW 11.5 mph 16.1 mph N/A   Overcast
11:35 AM 78.8 °F - 71.6 °F 78% 29.94 in 10.0 mi WSW 9.2 mph - N/A   Overcast
11:55 AM 78.8 °F - 69.8 °F 74% 29.94 in 10.0 mi WSW 11.5 mph 17.3 mph N/A   Mostly Cloudy
12:35 PM 80.6 °F 83.2 °F 68.0 °F 65% 29.90 in 10.0 mi WSW 10.4 mph - N/A   Mostly Cloudy
12:55 PM 80.6 °F 83.2 °F 68.0 °F 65% 29.89 in 10.0 mi WSW 8.1 mph - N/A   Mostly Cloudy
1:15 PM 80.6 °F 83.2 °F 68.0 °F 65% 29.88 in 10.0 mi SW 6.9 mph - N/A   Overcast
1:35 PM 80.6 °F 82.7 °F 66.2 °F 61% 29.87 in 10.0 mi West 8.1 mph - N/A   Overcast
2:15 PM 80.6 °F 82.7 °F 66.2 °F 61% 29.85 in 10.0 mi West 8.1 mph - N/A   Mostly Cloudy
2:35 PM 82.4 °F 84.6 °F 66.2 °F 58% 29.84 in 10.0 mi WNW 6.9 mph - N/A   Mostly Cloudy
2:55 PM 82.4 °F 84.6 °F 66.2 °F 58% 29.83 in 10.0 mi WSW 6.9 mph - N/A   Scattered Clouds
3:15 PM 80.6 °F 82.7 °F 66.2 °F 61% 29.83 in 10.0 mi WSW 9.2 mph - N/A   Mostly Cloudy
3:35 PM 80.6 °F 82.3 °F 64.4 °F 58% 29.83 in 10.0 mi West 6.9 mph - N/A   Overcast
3:55 PM 80.6 °F 82.7 °F 66.2 °F 61% 29.82 in 10.0 mi West 8.1 mph - N/A   Overcast
4:15 PM 80.6 °F 82.3 °F 64.4 °F 58% 29.82 in 10.0 mi WNW 5.8 mph - N/A   Overcast
4:35 PM 80.6 °F 82.3 °F 64.4 °F 58% 29.81 in 10.0 mi WNW 12.7 mph - N/A   Overcast
4:55 PM 80.6 °F 82.3 °F 64.4 °F 58% 29.80 in 10.0 mi NW 4.6 mph - N/A Thunderstorm Mostly Cloudy
5:15 PM 80.6 °F 82.3 °F 64.4 °F 58% 29.80 in 10.0 mi West 8.1 mph - N/A   Mostly Cloudy
5:35 PM 78.8 °F - 64.4 °F 61% 29.81 in 10.0 mi West 5.8 mph - N/A   Mostly Cloudy
5:55 PM 80.6 °F 82.3 °F 64.4 °F 58% 29.81 in 10.0 mi West 3.5 mph - N/A   Mostly Cloudy
6:15 PM 80.6 °F 82.3 °F 64.4 °F 58% 29.80 in 10.0 mi NW 5.8 mph - N/A   Scattered Clouds
6:35 PM 78.8 °F - 64.4 °F 61% 29.81 in 10.0 mi NW 5.8 mph - N/A   Scattered Clouds
7:15 PM 73.4 °F - 62.6 °F 69% 29.82 in 10.0 mi NW 3.5 mph - N/A   Clear
7:35 PM 71.6 °F - 62.6 °F 73% 29.82 in 10.0 mi NW 6.9 mph - N/A   Scattered Clouds
7:55 PM 71.6 °F - 60.8 °F 69% 29.83 in 10.0 mi NW 4.6 mph - N/A   Clear
8:15 PM 69.8 °F - 60.8 °F 73% 29.84 in 10.0 mi NW 5.8 mph - N/A   Clear
8:35 PM 69.8 °F - 59.0 °F 68% 29.85 in 10.0 mi NW 5.8 mph - N/A   Clear
8:55 PM 68.0 °F - 59.0 °F 73% 29.85 in 10.0 mi NW 4.6 mph - N/A   Clear
9:15 PM 68.0 °F - 59.0 °F 73% 29.86 in 10.0 mi NNW 10.4 mph - N/A   Clear
9:35 PM 69.8 °F - 55.4 °F 60% 29.87 in 10.0 mi NW 6.9 mph - N/A   Clear
9:55 PM 68.0 °F - 53.6 °F 60% 29.87 in 10.0 mi NNW 9.2 mph - N/A   Clear
10:15 PM 68.0 °F - 51.8 °F 56% 29.87 in 10.0 mi NNW 8.1 mph - N/A   Clear
10:35 PM 68.0 °F - 51.8 °F 56% 29.87 in 10.0 mi NNW 8.1 mph - N/A   Clear
10:55 PM 66.2 °F - 51.8 °F 60% 29.88 in 10.0 mi NNW 9.2 mph - N/A   Clear
11:15 PM 64.4 °F - 51.8 °F 64% 29.88 in 10.0 mi NW 6.9 mph - N/A   Clear
11:35 PM 64.4 °F - 51.8 °F 64% 29.88 in 10.0 mi NW 8.1 mph - N/A   Clear
11:55 PM 64.4 °F - 50.0 °F 59% 29.88 in 10.0 mi NW 5.8 mph - N/A   Clear